Location: Eimen
(51.8766°N, 9.7806°E)
Time: 14:57:28
(UTC+00:00)

Envisat - Pass Details

Date: 13 August 2024
Orbit: 762 x 764 km, 98.3° (Epoch: 09 September)

Event Time Altitude Azimuth Distance (km) Brightness Sun altitude
Rises 01:33:48 0° 24° (NNE) 3,241 7.9 -18.0°
Reaches altitude 10° 01:36:35 10° 38° (NE) 2,309 6.8 -17.8°
Maximum altitude 01:40:38 23° 91° (E) 1,568 5.0 -17.4°
Drops below altitude 10° 01:44:38 10° 144° (SE) 2,294 5.3 -17.1°
Enters shadow 01:46:19 - 154° (SSE) 2,845 5.7 -16.9°
